Hourly Data Report for October 31, 2015

All times are specified in Local Standard Time (LST). Add 1 hour to adjust for Daylight Saving Time where and when it is observed.

OTTAWA INTL A
ONTARIO

45°19'00.000" N
75°40'00.000" W
114.90 m
6106001
71628
YOW

Download Data

Hourly Data (October 2015)
Hourly Data Report for October 31, 2015
Temp Definition
°C
Dew Point Temp Definition
°C
Rel Hum Definition
%
Wind Dir Definition
10's deg

Wind Spd Definition
km/h
Visibility Definition
km
Stn Press Definition
kPa
Hmdx Definition


Wind Chill Definition


Weather Definition


TIME
00:00 Legend Double Dagger -3.6 -5.3 88 15 5 24.1 100.61   -6 LegendNANA
01:00 Legend Double Dagger -1.6 -4.4 81 22 8 24.1 100.70   -5 Clear
02:00 Legend Double Dagger -3.8 -5.1 91 22 7 24.1 100.71   -7 LegendNANA
03:00 Legend Double Dagger -4.3 -5.3 93 19 4 24.1 100.70   -6 LegendNANA
04:00 Legend Double Dagger -2.9 -4.6 88 24 3 24.1 100.70   -4 Clear
05:00 Legend Double Dagger -3.8 -4.6 94 18 4 24.1 100.73   -5 LegendNANA
06:00 Legend Double Dagger -3.5 -4.3 94 36 3 24.1 100.72   -5 LegendNANA
07:00 Legend Double Dagger -3.9 -5.5 89 36 1 24.1 100.76   -4 Mainly Clear
08:00 Legend Double Dagger -1.2 -2.8 89 12 3 24.1 100.81   -2 LegendNANA
09:00 Legend Double Dagger 2.1 -2.1 74 36 3 24.1 100.82     LegendNANA
10:00 Legend Double Dagger 2.8 -1.4 74 16 5 24.1 100.77     Cloudy
11:00 Legend Double Dagger 3.9 -0.7 72 17 5 24.1 100.67     LegendNANA
12:00 Legend Double Dagger 4.8 -0.2 70 18 9 24.1 100.63     LegendNANA
13:00 Legend Double Dagger 5.8 -0.3 65 20 7 24.1 100.56     Cloudy
14:00 Legend Double Dagger 6.3 -0.7 61 21 12 24.1 100.53     LegendNANA
15:00 Legend Double Dagger 6.3 0.0 64 21 8 24.1 100.49     LegendNANA
16:00 Legend Double Dagger 6.2 0.3 66 23 9 24.1 100.47     Cloudy
17:00 Legend Double Dagger 4.7 0.3 73 16 7 24.1 100.43     LegendNANA
18:00 Legend Double Dagger 4.3 0.6 77 12 5 24.1 100.38     LegendNANA
19:00 Legend Double Dagger 4.3 1.0 79 10 8 24.1 100.34     Cloudy
20:00 Legend Double Dagger 4.4 1.3 80 11 8 24.1 100.27     LegendNANA
21:00 Legend Double Dagger 4.5 1.7 82 11 11 24.1 100.14     LegendNANA
22:00 Legend Double Dagger 3.4 1.6 88 13 10 24.1 100.10     Cloudy
23:00 Legend Double Dagger 5.2 2.0 80 13 12 24.1 100.02     LegendNANA

Notes on Data Quality.

Legend

  • E = Estimated
  • M = Missing
  • NA = Not Available
  • ‡ = Partner data that is not subject to review by the National Climate Archives
Date modified: